Flag for Germany Weather past 2 weeks in Siegen, North Rhine-Westphalia, Germany

Now
81 °F

Sunny.


Feels Like: 82 °F
Forecast: 60 / 87 °F
Wind: 6 mph from Southwest

Location: Hessen

Current Time: Aug 30, 2015 at 8:41:04 PM

Latest Report: Aug 30, 2015 at 7:50 PM


Visibility: 10 mi

Pressure: 30.09 "Hg

Humidity: 54%

Dew point: 63 °F

Location of SiegenLocation

Historic Weather in Siegen — Graph

°F

Siegen temperature yesterday

Maximum temperature yesterday: 77 °F (at 5:50 PM)
Minimum temperature yesterday: 55 °F (at 7:50 AM)
Average temperature yesterday: 69 °F

Past Weeks' High & Low Weather Summary

 TemperatureHumidityPressure
High86 °F (Aug 30, 5:50 PM)100% (Aug 16, 7:50 AM)30.30 "Hg (Aug 16, 7:50 AM)
Low48 °F (Aug 18, 7:20 AM)41% (Aug 22, 5:50 PM)29.68 "Hg (Aug 24, 1:50 PM)
Average62 °F78%30.04 "Hg
* Reported Aug 15 7:20 PM — Aug 30 7:20 PM, Siegen, Weather by CustomWeather, © 2015

Note: Actual official high and low records may vary slightly from our data, if they occured in-between our weather recording intervals... More about our weather records

Advertising

Siegen weather history for previous 24 hours

 ConditionsComfort  
Time TempWeatherWind HumidityBarometerVisibility
7:20 PM
Sun, Aug 30
82 °FSunny.6 mph51%30.09 "Hg10 mi
6:50 PM82 °FSunny.7 mph51%30.09 "Hg10 mi
6:20 PM84 °FSunny.7 mph48%30.09 "Hg10 mi
5:50 PM86 °FPassing clouds.8 mph49%30.09 "HgN/A
5:20 PM84 °FPassing clouds.7 mph51%30.09 "HgN/A
4:50 PM84 °FSunny.7 mph55%30.09 "Hg10 mi
4:20 PM84 °FPassing clouds.9 mph55%30.09 "HgN/A
3:50 PM84 °FPassing clouds.10 mph51%30.09 "HgN/A
3:20 PM84 °FSunny.12 mph55%30.12 "Hg10 mi
2:50 PM82 °FSunny.10 mph58%30.12 "Hg10 mi
2:20 PM82 °FSunny.12 mph58%30.12 "Hg10 mi
1:50 PM82 °FPassing clouds.10 mph58%30.12 "HgN/A
1:20 PM81 °FPassing clouds.12 mph62%30.12 "HgN/A
12:50 PM81 °FPassing clouds.9 mph62%30.12 "HgN/A
12:20 PM79 °FPassing clouds.8 mph65%30.12 "HgN/A
11:20 AM77 °FSunny.8 mph74%30.12 "Hg10 mi
10:50 AM77 °FSunny.7 mph74%30.15 "Hg10 mi
10:20 AM77 °FSunny.6 mph74%30.15 "Hg10 mi
9:50 AM75 °FSunny.7 mph74%30.15 "Hg10 mi
9:20 AM73 °FSunny.8 mph78%30.12 "Hg10 mi
8:50 AM72 °FSunny.5 mph88%30.12 "Hg10 mi
8:20 AM70 °FSunny.3 mph88%30.12 "Hg10 mi
7:50 AM68 °FSunny.5 mph88%30.12 "Hg10 mi
7:20 AM64 °FClear.6 mph100%30.12 "Hg10 mi
8:50 PM
Sat, Aug 29
68 °FSunny.6 mph88%30.18 "Hg10 mi
8:20 PM70 °FSunny.6 mph83%30.18 "Hg10 mi
Weather by CustomWeather, © 2015

See weather overviewHow to use our weather pages